Regional Weather Roundup
Issued by NWS

Home | Current Version | Previous Version | Text Only | Print | Product List | Glossary Off
Versions: 1 2 3 4 5 6 7 8 9 10 11 12 13 14 15 16 17 18 19 20 21 22 23 24 25 26 27 28 29 30 31 32 33 34 35 36 37 38 39 40 41 42 43 44 45 46 47 48 49 50

000
ASUS45 KABQ 231710
RWRNM
NEW MEXICO REGIONAL WEATHER ROUNDUP
NATIONAL WEATHER SERVICE ALBUQUERQUE NM
1000 AM MST THU NOV 23 2017

NOTE: "FAIR" MEANS FEW OR NO CLOUDS BELOW 12,000 FEET AGL WITH NO
       SIGNIFICANT WEATHER OR OBSTRUCTIONS TO VISION.

      THIS PRODUCT IS RELEASED AS TWO VERSIONS.  ONE VERSION NEAR
      THE TOP OF THE HOUR CONTAINING PRELIMINARY DATA FROM ALBUQUERQUE
      AND OTHER STATIONS.  A FINAL VERSION WITH ADDITIONAL DATA IS
      ISSUED ABOUT 10 MINUTES AFTER THE HOUR.

NMZ501-503-504-510>518-231800-
NORTHWEST PLATEAU/NORTHCENTRAL MOUNTAINS

CITY           SKY/WX    TMP DP  RH WIND       PRES   REMARKS
FARMINGTON     FAIR      39  25  57 E6        30.38S WCI  35
LOS ALAMOS     FAIR      51  30  44 NE3       30.40S
SANTA FE       FAIR      51  31  46 N10       30.37S
TAOS           FAIR      48  30  49 NW6       30.42S
ANGEL FIRE     FAIR      42  32  66 N6        30.43S

$$
NMZ402-403-502-505>509-231800-
WESTCENTRAL MOUNTAINS/SOUTHWEST MOUNTAINS

CITY           SKY/WX    TMP DP  RH WIND       PRES   REMARKS
GALLUP         FAIR      46  28  49 CALM      30.42S
GRANTS         FAIR      48  31  51 NW6       30.42F
SILVER CITY    FAIR      63  26  25 CALM      30.33S

$$
NMZ407-409-411-412-231800-
SOUTHERN DESERTS

CITY           SKY/WX    TMP DP  RH WIND       PRES   REMARKS
DEMING         FAIR      60  26  27 E5        30.30F
LAS CRUCES     FAIR      60  25  26 E3        30.31S
HOLLOMAN AFB   FAIR      58  29  32 CALM      30.31F
ALAMOGORDO     FAIR      55  25  30 CALM      30.30F
T OR C         FAIR      57  29  34 E5        30.31F

$$
NMZ519>523-231800-
CENTRAL VALLEYS/CENTRAL HIGHLANDS

CITY           SKY/WX    TMP DP  RH WIND       PRES   REMARKS
ALBUQUERQUE    PTSUNNY   51  29  42 NW5       30.36F
DOUBLE EAGLE   MOSUNNY   57  32  38 CALM      30.37F
MORIARTY ARPT  FAIR      59  32  36 N9        30.37S
CLINES CORNERS FAIR      59  30  33 NW7       30.36F
BELEN          FAIR      54  29  39 N3        30.36F
SOCORRO        FAIR      53  28  38 N9        30.34F

$$
NMZ524>526-539-540-231800-
SOUTHCENTRAL MOUNTAINS

CITY           SKY/WX    TMP DP  RH WIND       PRES   REMARKS
RUIDOSO        FAIR      59  27  29 N3        30.37F

$$
NMZ527>531-231800-
NORTHEAST HIGHLANDS/NORTHEAST PLAINS

CITY           SKY/WX    TMP DP  RH WIND       PRES   REMARKS
LAS VEGAS      FAIR      57  30  35 N5        30.35S
RATON          FAIR      49  32  52 NE5       30.32S
CLAYTON        FAIR      63  37  38 CALM      30.24F

$$
NMZ532>537-231800-
EASTCENTRAL PLAINS

CITY           SKY/WX    TMP DP  RH WIND       PRES   REMARKS
SANTA ROSA     FAIR      56  32  39 CALM      30.26F
TUCUMCARI      FAIR      57  32  38 W6        30.22F
CANNON AFB     FAIR      63  32  31 W5        30.25F HAZE
CLOVIS AIRPORT FAIR      63  33  32 NW7       30.25S

$$
NMZ028-029-538-231800-
SOUTHEAST PLAINS

CITY           SKY/WX    TMP DP  RH WIND       PRES   REMARKS
ROSWELL        FAIR      55  31  39 CALM      30.25F
ARTESIA        FAIR      55  30  38 N6        30.27S
CARLSBAD       FAIR      60  30  32 N13       30.24F
HOBBS          SUNNY     68  30  24 NE8       30.23S


$$




USA.gov is the U.S. government's official web portal to all federal, state and local government web resources and services.